| time (UTC) | temp F | wind direction | speed knots | gust knots | rain 1hr in | rain 24hr in | rain mn in | humidity % | barometer mb |
| 20260507112838 | 64 | 336 | 0.0 | 4.3 | 0.00 | 0.00 | 0.00 | 82 | 1016.3 |
| 20260507111838 | 64 | 320 | 2.6 | 2.6 | 0.00 | 0.00 | 0.00 | 82 | 1016.6 |
| 20260507110838 | 64 | 286 | 0.0 | 1.7 | 0.00 | 0.00 | 0.00 | 82 | 1016.1 |
| 20260507105838 | 64 | 302 | 0.9 | 1.7 | 0.00 | 0.00 | 0.00 | 82 | 1016.0 |
| 20260507104838 | 64 | 19 | 0.0 | 0.0 | 0.00 | 0.00 | 0.00 | 82 | 1015.8 |
| 20260507103838 | 65 | 335 | 0.0 | 1.7 | 0.00 | 0.00 | 0.00 | 82 | 1015.8 |
| 20260507102838 | 65 | 325 | 0.0 | 0.0 | 0.00 | 0.00 | 0.00 | 82 | 1015.2 |
| 20260507101837 | 65 | 311 | 0.0 | 0.9 | 0.00 | 0.00 | 0.00 | 82 | 1015.7 |
| 20260507100837 | 65 | 65 | 0.0 | 0.9 | 0.00 | 0.00 | 0.00 | 82 | 1015.2 |
| 20260507095838 | 65 | 50 | 0.0 | 0.0 | 0.00 | 0.00 | 0.00 | 82 | 1015.5 |
| 20260507094837 | 65 | 53 | 0.0 | 1.7 | 0.00 | 0.00 | 0.00 | 82 | 1014.8 |
| 20260507093837 | 65 | 59 | 0.0 | 0.9 | 0.00 | 0.00 | 0.00 | 83 | 1014.4 |
| 20260507092838 | 65 | 57 | 0.0 | 0.9 | 0.00 | 0.00 | 0.00 | 82 | 1014.3 |
| 20260507091837 | 65 | 65 | 0.0 | 2.6 | 0.00 | 0.00 | 0.00 | 83 | 1014.2 |
| 20260507090837 | 65 | 63 | 0.0 | 1.7 | 0.00 | 0.00 | 0.00 | 83 | 1014.5 |
| 20260507085837 | 66 | 291 | 0.0 | 0.0 | 0.00 | 0.00 | 0.00 | 83 | 1014.8 |
| 20260507084837 | 66 | 91 | 0.0 | 1.7 | 0.00 | 0.00 | 0.00 | 83 | 1014.9 |
| 20260507083837 | 66 | 15 | 0.0 | 0.0 | 0.00 | 0.00 | 0.00 | 83 | 1014.6 |
| 20260507082837 | 66 | 355 | 0.0 | 1.7 | 0.00 | 0.00 | 0.00 | 82 | 1014.5 |
| 20260507081837 | 66 | 9 | 0.0 | 0.9 | 0.00 | 0.00 | 0.00 | 82 | 1014.4 |
| 20260507080837 | 66 | 89 | 0.9 | 1.7 | 0.00 | 0.00 | 0.00 | 82 | 1014.6 |
| 20260507075837 | 66 | 346 | 0.0 | 1.7 | 0.00 | 0.00 | 0.00 | 82 | 1014.6 |
| 20260507074837 | 66 | 351 | 0.0 | 5.2 | 0.00 | 0.00 | 0.00 | 82 | 1015.0 |
| 20260507073836 | 66 | 338 | 0.0 | 0.9 | 0.00 | 0.00 | 0.00 | 82 | 1014.9 |
| 20260507072836 | 66 | 312 | 0.9 | 3.5 | 0.00 | 0.00 | 0.00 | 81 | 1015.1 |
| 20260507071836 | 66 | 28 | 0.0 | 3.5 | 0.00 | 0.00 | 0.00 | 81 | 1014.6 |
| 20260507070836 | 66 | 333 | 0.0 | 2.6 | 0.00 | 0.00 | 0.00 | 81 | 1015.4 |
| 20260507065836 | 66 | 306 | 0.0 | 2.6 | 0.00 | 0.00 | 0.00 | 81 | 1015.3 |
| 20260507064836 | 66 | 287 | 0.0 | 2.6 | 0.00 | 0.00 | 0.00 | 81 | 1015.4 |
| 20260507063836 | 66 | 355 | 0.9 | 2.6 | 0.00 | 0.00 | 0.00 | 81 | 1015.4 |
| 20260507062836 | 67 | 331 | 0.0 | 2.6 | 0.00 | 0.00 | 0.00 | 80 | 1015.4 |
| 20260507061836 | 67 | 5 | 0.9 | 4.3 | 0.00 | 0.00 | 0.00 | 80 | 1015.4 |
| 20260507060836 | 67 | 348 | 0.0 | 2.6 | 0.00 | 0.00 | 0.00 | 80 | 1014.8 |
| 20260507055836 | 67 | 355 | 0.0 | 2.6 | 0.00 | 0.00 | 0.00 | 80 | 1015.0 |
| 20260507054836 | 67 | 349 | 0.0 | 6.1 | 0.00 | 0.00 | 0.00 | 80 | 1015.1 |
| 20260507053836 | 67 | 331 | 0.0 | 2.6 | 0.00 | 0.00 | 0.00 | 80 | 1015.2 |
| 20260507052836 | 67 | 328 | 0.0 | 4.3 | 0.00 | 0.00 | 0.00 | 79 | 1015.1 |
| 20260507051836 | 67 | 326 | 0.0 | 1.7 | 0.00 | 0.00 | 0.00 | 79 | 1014.7 |
| 20260507050835 | 67 | 19 | 0.0 | 3.5 | 0.00 | 0.00 | 0.00 | 79 | 1014.8 |
| 20260507045835 | 67 | 343 | 0.9 | 1.7 | 0.00 | 0.00 | 0.00 | 78 | 1015.0 |
| 20260507044835 | 67 | 322 | 0.0 | 2.6 | 0.00 | 0.00 | 0.00 | 78 | 1015.1 |
| 20260507043835 | 67 | 311 | 0.9 | 1.7 | 0.00 | 0.00 | 0.00 | 78 | 1015.2 |
| 20260507042836 | 68 | 321 | 0.9 | 1.7 | 0.00 | 0.00 | 0.00 | 78 | 1014.8 |
| 20260507041836 | 68 | 336 | 0.0 | 2.6 | 0.00 | 0.00 | 0.00 | 78 | 1014.9 |
| 20260507040835 | 68 | 310 | 0.0 | 2.6 | 0.00 | 0.00 | 0.00 | 77 | 1014.3 |
| 20260507035835 | 68 | 317 | 0.0 | 1.7 | 0.00 | 0.00 | 0.00 | 77 | 1014.7 |
| 20260507034836 | 68 | 5 | 0.0 | 2.6 | 0.00 | 0.00 | 0.00 | 77 | 1014.9 |
| 20260507033836 | 69 | 348 | 0.0 | 2.6 | 0.00 | 0.00 | 0.00 | 77 | 1014.7 |
| 20260507032835 | 69 | 327 | 0.0 | 1.7 | 0.00 | 0.00 | 0.00 | 77 | 1014.4 |
| 20260507031835 | 69 | 294 | 0.0 | 4.3 | 0.00 | 0.00 | 0.00 | 77 | 1014.1 |
| 20260507030835 | 69 | 346 | 0.0 | 5.2 | 0.00 | 0.00 | 0.00 | 76 | 1014.0 |
| 20260507025835 | 70 | 13 | 0.9 | 2.6 | 0.00 | 0.00 | 0.00 | 76 | 1013.6 |
| 20260507024835 | 70 | 336 | 0.0 | 2.6 | 0.00 | 0.00 | 0.00 | 76 | 1013.3 |
| 20260507023835 | 71 | 12 | 1.7 | 5.2 | 0.00 | 0.00 | 0.00 | 75 | 1013.3 |
| 20260507022835 | 71 | 306 | 0.9 | 3.5 | 0.00 | 0.00 | 0.00 | 76 | 1013.2 |
| 20260507021835 | 71 | 306 | 0.0 | 6.1 | 0.00 | 0.00 | 0.00 | 76 | 1012.8 |
| 20260507020835 | 72 | 339 | 0.0 | 3.5 | 0.00 | 0.00 | 0.00 | 75 | 1012.6 |
| 20260507015834 | 72 | 317 | 0.9 | 1.7 | 0.00 | 0.00 | 0.00 | 75 | 1012.6 |
| 20260507014834 | 72 | 320 | 0.0 | 2.6 | 0.00 | 0.00 | 0.00 | 75 | 1012.3 |
| 20260507013834 | 72 | 5 | 0.0 | 2.6 | 0.00 | 0.00 | 0.00 | 75 | 1012.2 |
| 20260507012834 | 73 | 317 | 0.0 | 1.7 | 0.00 | 0.00 | 0.00 | 75 | 1012.1 |
| 20260507011834 | 73 | 332 | 0.0 | 2.6 | 0.00 | 0.00 | 0.00 | 74 | 1011.9 |
| 20260507010834 | 73 | 298 | 0.9 | 3.5 | 0.00 | 0.00 | 0.00 | 74 | 1011.8 |
| 20260507005834 | 74 | 325 | 1.7 | 7.0 | 0.00 | 0.00 | 0.00 | 73 | 1011.7 |
| 20260507004834 | 74 | 36 | 0.0 | 3.5 | 0.00 | 0.00 | 0.00 | 73 | 1011.7 |
| 20260507003834 | 75 | 321 | 0.0 | 7.8 | 0.00 | 0.00 | 0.00 | 73 | 1011.4 |
| 20260507002833 | 76 | 307 | 0.9 | 4.3 | 0.00 | 0.00 | 0.00 | 72 | 1011.2 |
| 20260507001833 | 76 | 347 | 0.0 | 1.7 | 0.00 | 0.00 | 0.00 | 73 | 1011.0 |
| 20260507000834 | 77 | 309 | 0.0 | 4.3 | 0.00 | 0.00 | 0.00 | 73 | 1010.9 |
| 20260506235833 | 77 | 321 | 0.9 | 2.6 | 0.00 | 0.00 | 0.00 | 73 | 1010.8 |
| 20260506234833 | 78 | 325 | 0.0 | 2.6 | 0.00 | 0.00 | 0.00 | 72 | 1010.7 |
| 20260506233833 | 79 | 17 | 0.9 | 2.6 | 0.00 | 0.00 | 0.00 | 71 | 1010.7 |
| 20260506232833 | 80 | 329 | 0.9 | 4.3 | 0.00 | 0.00 | 0.00 | 71 | 1010.6 |
| 20260506231833 | 81 | 315 | 3.5 | 3.5 | 0.00 | 0.00 | 0.00 | 70 | 1010.5 |
| 20260506230833 | 83 | 314 | 0.0 | 2.6 | 0.00 | 0.00 | 0.00 | 70 | 1010.4 |
| 20260506225833 | 85 | 311 | 0.9 | 7.0 | 0.00 | 0.00 | 0.00 | 69 | 1010.3 |
| 20260506224833 | 87 | 294 | 4.3 | 7.8 | 0.00 | 0.00 | 0.00 | 72 | 1010.0 |
| 20260506223833 | 87 | 296 | 1.7 | 3.5 | 0.00 | 0.00 | 0.00 | 73 | 1009.7 |
| 20260506222832 | 87 | 300 | 0.0 | 0.0 | 0.00 | 0.00 | 0.00 | 73 | 1009.6 |
| 20260506221832 | 86 | 300 | 0.0 | 0.0 | 0.00 | 0.00 | 0.00 | 72 | 1009.4 |
| 20260506220833 | 86 | 181 | 0.0 | 0.0 | 0.00 | 0.00 | 0.00 | 71 | 1009.5 |
| 20260506215832 | 86 | 181 | 0.0 | 0.0 | 0.00 | 0.00 | 0.00 | 72 | 1009.4 |
| 20260506214832 | 86 | 181 | 0.0 | 0.0 | 0.00 | 0.00 | 0.00 | 72 | 1009.4 |
| 20260506213832 | 87 | 181 | 0.0 | 0.0 | 0.00 | 0.00 | 0.00 | 71 | 1009.5 |
| 20260506212832 | 87 | 181 | 0.0 | 0.0 | 0.00 | 0.00 | 0.00 | 70 | 1009.7 |
| 20260506211832 | 88 | 181 | 0.0 | 0.0 | 0.00 | 0.00 | 0.00 | 70 | 1009.6 |
| 20260506210832 | 88 | 181 | 0.0 | 0.0 | 0.00 | 0.00 | 0.00 | 70 | 1009.7 |
| 20260506205832 | 88 | 181 | 0.0 | 0.9 | 0.00 | 0.00 | 0.00 | 71 | 1009.7 |
| 20260506204832 | 87 | 200 | 0.0 | 0.9 | 0.00 | 0.00 | 0.00 | 71 | 1009.8 |
| 20260506203832 | 87 | 200 | 0.0 | 2.6 | 0.00 | 0.00 | 0.00 | 73 | 1009.9 |
| 20260506202832 | 86 | 155 | 0.0 | 0.0 | 0.00 | 0.00 | 0.00 | 75 | 1009.8 |
| 20260506201831 | 85 | 201 | 0.0 | 2.6 | 0.00 | 0.00 | 0.00 | 75 | 1010.2 |
| 20260506200831 | 85 | 94 | 2.6 | 5.2 | 0.00 | 0.00 | 0.00 | 75 | 1010.2 |
| 20260506195832 | 85 | 108 | 0.9 | 3.5 | 0.00 | 0.00 | 0.00 | 76 | 1010.4 |
| 20260506194831 | 84 | 140 | 0.9 | 5.2 | 0.00 | 0.00 | 0.00 | 76 | 1010.5 |
| 20260506193831 | 85 | 69 | 2.6 | 3.5 | 0.00 | 0.00 | 0.00 | 75 | 1010.5 |
| 20260506192831 | 85 | 123 | 0.9 | 2.6 | 0.00 | 0.00 | 0.00 | 74 | 1010.6 |
| 20260506191831 | 85 | 114 | 0.0 | 3.5 | 0.00 | 0.00 | 0.00 | 74 | 1010.5 |
| 20260506190831 | 85 | 104 | 1.7 | 6.1 | 0.00 | 0.00 | 0.00 | 76 | 1010.5 |
| 20260506185831 | 85 | 128 | 0.9 | 6.1 | 0.00 | 0.00 | 0.00 | 77 | 1010.6 |
| 20260506184831 | 83 | 97 | 0.0 | 6.1 | 0.00 | 0.00 | 0.00 | 78 | 1010.6 |
| 20260506183831 | 83 | 197 | 1.7 | 3.5 | 0.00 | 0.00 | 0.00 | 78 | 1010.7 |
| 20260506182831 | 83 | 134 | 1.7 | 5.2 | 0.00 | 0.00 | 0.00 | 78 | 1010.8 |
| 20260506181830 | 83 | 153 | 0.0 | 0.0 | 0.00 | 0.00 | 0.00 | 79 | 1011.0 |
| 20260506180831 | 82 | 96 | 0.0 | 0.0 | 0.00 | 0.00 | 0.00 | 79 | 1011.3 |
| 20260506175830 | 82 | 93 | 0.0 | 2.6 | 0.00 | 0.00 | 0.00 | 78 | 1011.6 |
| 20260506174830 | 82 | 203 | 0.0 | 2.6 | 0.00 | 0.00 | 0.00 | 78 | 1011.9 |
| 20260506173830 | 82 | 208 | 0.0 | 0.0 | 0.00 | 0.00 | 0.00 | 78 | 1012.1 |
| 20260506172830 | 83 | 208 | 0.0 | 0.0 | 0.00 | 0.00 | 0.00 | 79 | 1012.3 |
| 20260506171830 | 83 | 208 | 0.0 | 0.0 | 0.00 | 0.00 | 0.00 | 79 | 1012.2 |
| 20260506170830 | 82 | 208 | 0.0 | 0.0 | 0.00 | 0.00 | 0.00 | 79 | 1012.2 |
| 20260506165830 | 82 | 123 | 0.0 | 0.0 | 0.00 | 0.00 | 0.00 | 80 | 1012.2 |
| 20260506164830 | 82 | 142 | 0.0 | 3.5 | 0.00 | 0.00 | 0.00 | 79 | 1012.3 |
| 20260506163830 | 82 | 220 | 0.9 | 3.5 | 0.00 | 0.00 | 0.00 | 79 | 1012.3 |
| 20260506162829 | 82 | 99 | 2.6 | 5.2 | 0.00 | 0.00 | 0.00 | 80 | 1012.0 |
| 20260506161829 | 82 | 170 | 1.7 | 4.3 | 0.00 | 0.00 | 0.00 | 80 | 1011.7 |
| 20260506160829 | 81 | 97 | 0.0 | 5.2 | 0.00 | 0.00 | 0.00 | 81 | 1011.5 |
| 20260506155829 | 81 | 119 | 0.9 | 2.6 | 0.00 | 0.00 | 0.00 | 82 | 1011.4 |
| 20260506154829 | 81 | 103 | 0.0 | 5.2 | 0.00 | 0.00 | 0.00 | 83 | 1011.3 |
| 20260506153829 | 80 | 95 | 0.0 | 3.5 | 0.00 | 0.00 | 0.00 | 83 | 1011.3 |
| 20260506152829 | 80 | 165 | 0.0 | 0.0 | 0.00 | 0.00 | 0.00 | 84 | 1011.3 |
| 20260506151829 | 79 | 165 | 0.0 | 0.0 | 0.00 | 0.00 | 0.00 | 84 | 1011.3 |
| 20260506150829 | 79 | 165 | 0.0 | 0.0 | 0.00 | 0.00 | 0.00 | 84 | 1011.6 |
| 20260506145829 | 79 | 165 | 0.0 | 0.0 | 0.00 | 0.00 | 0.00 | 85 | 1011.5 |
| 20260506144828 | 79 | 165 | 0.0 | 3.5 | 0.00 | 0.00 | 0.00 | 85 | 1011.2 |
| 20260506143828 | 78 | 106 | 1.7 | 2.6 | 0.00 | 0.00 | 0.00 | 85 | 1011.1 |
| 20260506142829 | 78 | 84 | 0.0 | 2.6 | 0.00 | 0.00 | 0.00 | 85 | 1010.9 |
| 20260506141828 | 78 | 82 | 0.0 | 3.5 | 0.00 | 0.00 | 0.00 | 86 | 1010.9 |
| 20260506140828 | 78 | 179 | 0.0 | 4.3 | 0.00 | 0.00 | 0.00 | 86 | 1010.9 |
| 20260506135828 | 78 | 172 | 1.7 | 5.2 | 0.00 | 0.00 | 0.00 | 86 | 1011.0 |
| 20260506134828 | 77 | 128 | 3.5 | 3.5 | 0.00 | 0.00 | 0.00 | 86 | 1011.0 |
| 20260506133828 | 77 | 161 | 1.7 | 2.6 | 0.00 | 0.00 | 0.00 | 86 | 1011.1 |
| 20260506132828 | 77 | 123 | 0.0 | 1.7 | 0.00 | 0.00 | 0.00 | 86 | 1011.1 |
| 20260506131828 | 77 | 88 | 0.0 | 3.5 | 0.00 | 0.00 | 0.00 | 86 | 1011.1 |
| 20260506130828 | 77 | 119 | 1.7 | 3.5 | 0.00 | 0.00 | 0.00 | 86 | 1011.0 |
| 20260506125827 | 77 | 215 | 0.0 | 1.7 | 0.00 | 0.00 | 0.00 | 86 | 1011.0 |
| 20260506124827 | 77 | 147 | 0.9 | 3.5 | 0.00 | 0.00 | 0.00 | 86 | 1010.9 |
| 20260506123827 | 77 | 144 | 0.0 | 2.6 | 0.00 | 0.00 | 0.00 | 85 | 1010.8 |
| 20260506122828 | 77 | 159 | 0.0 | 2.6 | 0.00 | 0.00 | 0.00 | 85 | 1010.8 |
| 20260506121827 | 77 | 134 | 0.0 | 2.6 | 0.00 | 0.00 | 0.00 | 85 | 1010.6 |
| 20260506120827 | 77 | 146 | 0.0 | 1.7 | 0.00 | 0.00 | 0.00 | 85 | 1010.6 |
| 20260506115827 | 77 | 153 | 1.7 | 3.5 | 0.00 | 0.00 | 0.00 | 85 | 1010.6 |
| 20260506114827 | 77 | 140 | 1.7 | 1.7 | 0.00 | 0.00 | 0.00 | 85 | 1010.4 |
| 20260506113827 | 77 | 130 | 0.9 | 3.5 | 0.00 | 0.00 | 0.00 | 85 | 1010.4 |